Boulder City, NV

4:30 PM PST on November 20, 2019 (GMT -0800)
Boulder City

Weather History for KBVU - September, 2019

Change the Weather History Date:

Wednesday, September 18, 2019

  Actual Average (KLAS) Record (KLAS)
Temperature  
Mean Temperature 76 °F -  
Max Temperature 93 °F 91 °F 108 °F (1937)
Min Temperature 60 °F 66 °F 53 °F (1965)
Cooling Degree Days 12    
Growing Degree Days 26 (Base 50)    
Moisture  
Dew Point 26 °F    
Average Humidity 17    
Maximum Humidity 34    
Minimum Humidity 6    
Precipitation  
Precipitation 0.00 in - - ()
Sea Level Pressure  
Sea Level Pressure 29.84 in    
Wind  
Wind Speed 5 mph ()    
Max Wind Speed 25 mph    
Max Gust Speed 31 mph    
Visibility 9.9 miles    
Events      
Averages and records for this station are not official NWS values.
T = Trace of Precipitation, MM = Missing Value Source: Averaged Metar Reports

Daily Weather History Graph

Daily Weather History Graph

Search for Another Location

Airport or City:

Astronomy

Sep. 18, 2019 Rise Set
Actual Time 6:24 AM PDT 6:42 PM PDT
Civil Twilight 5:58 AM PDT 7:07 PM PDT
Nautical Twilight 5:28 AM PDT 7:37 PM PDT
Astronomical Twilight 4:57 AM PDT 8:08 PM PDT
Moon 9:26 PM PDT (9/18) 10:24 AM PDT (9/18)
Length of Visible Light 13h 09m
Length of Day
12h 18m
Waning Gibbous, 82% of the Moon is Illuminated
Sep 18
Waning Gibbous
Sep 21
Last Quarter
Sep 28
New
Oct 5
First Quarter
Oct 13
Full

Hourly Weather History & Observations

Time (PDT) Temp. Dew Point Humidity Pressure Visibility Wind Dir Wind Speed Gust Speed Precip Events Conditions
12:15 AM 66.2 °F 32.0 °F 28% 29.89 in 10.0 mi Calm Calm - N/A   Scattered Clouds
12:35 AM 68.0 °F 35.6 °F 30% 29.88 in 10.0 mi Calm Calm - N/A   Partly Cloudy
12:55 AM 64.4 °F 35.6 °F 34% 29.88 in 10.0 mi Calm Calm - N/A   Scattered Clouds
1:15 AM 64.4 °F 35.6 °F 34% 29.88 in 10.0 mi North 3.5 mph - N/A   Mostly Cloudy
1:35 AM 64.4 °F 33.8 °F 32% 29.89 in 10.0 mi Calm Calm - N/A   Mostly Cloudy
1:55 AM 66.2 °F 33.8 °F 30% 29.88 in 10.0 mi NNW 4.6 mph - N/A   Mostly Cloudy
2:15 AM 66.2 °F 32.0 °F 28% 29.88 in 10.0 mi WNW 4.6 mph - N/A   Overcast
2:35 AM 66.2 °F 24.8 °F 21% 29.88 in 10.0 mi WNW 5.8 mph - N/A   Mostly Cloudy
2:55 AM 68.0 °F 26.6 °F 21% 29.88 in 10.0 mi Calm Calm - N/A   Mostly Cloudy
3:15 AM 62.6 °F 32.0 °F 32% 29.88 in 10.0 mi Calm Calm - N/A   Overcast
3:35 AM 62.6 °F 32.0 °F 32% 29.88 in 10.0 mi Calm Calm - N/A   Overcast
3:55 AM 62.6 °F 30.2 °F 30% 29.87 in 10.0 mi Calm Calm - N/A   Overcast
4:15 AM 64.4 °F 28.4 °F 26% 29.87 in 10.0 mi NNW 4.6 mph - N/A   Mostly Cloudy
4:35 AM 64.4 °F 30.2 °F 28% 29.87 in 10.0 mi NW 4.6 mph - N/A   Mostly Cloudy
4:55 AM 64.4 °F 30.2 °F 28% 29.88 in 10.0 mi Calm Calm - N/A   Mostly Cloudy
5:15 AM 62.6 °F 30.2 °F 30% 29.88 in 10.0 mi WNW 3.5 mph - N/A   Mostly Cloudy
5:35 AM 62.6 °F 30.2 °F 30% 29.88 in 10.0 mi Calm Calm - N/A   Overcast
5:55 AM 62.6 °F 30.2 °F 30% 29.88 in 10.0 mi NNW 3.5 mph - N/A   Mostly Cloudy
6:15 AM 64.4 °F 28.4 °F 26% 29.89 in 10.0 mi Calm Calm - N/A   Clear
6:35 AM 60.8 °F 26.6 °F 27% 29.89 in 10.0 mi Calm Calm - N/A   Clear
6:55 AM 62.6 °F 30.2 °F 30% 29.90 in 10.0 mi Calm Calm - N/A   Clear
7:35 AM 66.2 °F 30.2 °F 26% 29.91 in 10.0 mi Calm Calm - N/A   Clear
7:55 AM 69.8 °F 28.4 °F 21% 29.91 in 10.0 mi Calm Calm - N/A   Clear
8:15 AM 71.6 °F 26.6 °F 19% 29.92 in 10.0 mi Calm Calm - N/A   Clear
8:35 AM 73.4 °F 26.6 °F 18% 29.92 in 10.0 mi Calm Calm - N/A   Clear
8:55 AM 73.4 °F 24.8 °F 16% 29.93 in 10.0 mi Calm Calm - N/A   Clear
9:15 AM 75.2 °F 24.8 °F 15% 29.93 in 10.0 mi Calm Calm - N/A   Clear
9:35 AM 78.8 °F 24.8 °F 14% 29.93 in 10.0 mi Calm Calm - N/A   Clear
9:55 AM 78.8 °F 26.6 °F 15% 29.93 in 10.0 mi Calm Calm - N/A   Clear
10:15 AM 80.6 °F 24.8 °F 13% 29.92 in 10.0 mi SE 6.9 mph - N/A   Clear
10:35 AM 82.4 °F 26.6 °F 13% 29.92 in 10.0 mi SSW 8.1 mph - N/A   Clear
10:55 AM 84.2 °F 26.6 °F 12% 29.91 in 10.0 mi Variable 5.8 mph - N/A   Clear
11:15 AM 84.2 °F 26.6 °F 12% 29.90 in 10.0 mi SSE 9.2 mph 15.0 mph N/A   Clear
11:35 AM 86.0 °F 26.6 °F 12% 29.90 in 10.0 mi SSE 6.9 mph 17.3 mph N/A   Clear
11:55 AM 86.0 °F 28.4 °F 12% 29.89 in 10.0 mi SE 10.4 mph 17.3 mph N/A   Clear
12:15 PM 86.0 °F 26.6 °F 12% 29.88 in 10.0 mi SE 11.5 mph - N/A   Clear
12:35 PM 87.8 °F 28.4 °F 12% 29.87 in 10.0 mi SE 9.2 mph 19.6 mph N/A   Clear
12:55 PM 87.8 °F 28.4 °F 12% 29.86 in 10.0 mi ESE 10.4 mph 17.3 mph N/A   Clear
1:15 PM 89.6 °F 28.4 °F 11% 29.85 in 10.0 mi South 13.8 mph 21.9 mph N/A   Clear
1:35 PM 89.6 °F 26.6 °F 10% 29.84 in 10.0 mi SSE 12.7 mph 23.0 mph N/A   Clear
1:55 PM 89.6 °F 26.6 °F 10% 29.83 in 10.0 mi SSE 11.5 mph 19.6 mph N/A   Clear
2:15 PM 91.4 °F 24.8 °F 9% 29.81 in 4.0 mi SSE 20.7 mph - N/A   Haze
2:35 PM 91.4 °F 23.0 °F 8% 29.81 in 10.0 mi SSE 15.0 mph 23.0 mph N/A   Clear
2:55 PM 91.4 °F 23.0 °F 8% 29.80 in 10.0 mi SSE 17.3 mph 25.3 mph N/A   Clear
3:15 PM 91.4 °F 21.2 °F 8% 29.79 in 10.0 mi SE 19.6 mph - N/A   Clear
3:35 PM 93.2 °F 21.2 °F 7% 29.79 in 10.0 mi SE 18.4 mph 26.5 mph N/A   Clear
3:55 PM 93.2 °F 23.0 °F 8% 29.78 in 10.0 mi SSE 20.7 mph 29.9 mph N/A   Clear
4:15 PM 93.2 °F 21.2 °F 7% 29.78 in 10.0 mi SSE 20.7 mph 27.6 mph N/A   Clear
4:35 PM 91.4 °F 19.4 °F 7% 29.77 in 10.0 mi SSE 18.4 mph 29.9 mph N/A   Clear
4:55 PM 91.4 °F 19.4 °F 7% 29.77 in 10.0 mi SSE 21.9 mph 31.1 mph N/A   Clear
5:15 PM 91.4 °F 17.6 °F 7% 29.77 in 10.0 mi SSE 25.3 mph - N/A   Clear
5:35 PM 89.6 °F 15.8 °F 7% 29.77 in 10.0 mi South 21.9 mph - N/A   Clear
5:55 PM 89.6 °F 14.0 °F 6% 29.77 in 10.0 mi South 17.3 mph 24.2 mph N/A   Clear
6:15 PM 89.6 °F 14.0 °F 6% 29.77 in 10.0 mi South 9.2 mph 20.7 mph N/A   Clear
6:35 PM 87.8 °F 14.0 °F 6% 29.77 in 10.0 mi SW 12.7 mph - N/A   Clear
6:55 PM 86.0 °F 15.8 °F 7% 29.77 in 10.0 mi SSW 11.5 mph 17.3 mph N/A   Clear
7:15 PM 84.2 °F 19.4 °F 9% 29.77 in 10.0 mi SSW 9.2 mph - N/A   Clear
7:35 PM 82.4 °F 21.2 °F 10% 29.78 in 10.0 mi South 8.1 mph - N/A   Clear
7:55 PM 84.2 °F 24.8 °F 11% 29.78 in 10.0 mi SSW 13.8 mph - N/A   Clear
8:15 PM 82.4 °F 24.8 °F 12% 29.78 in 10.0 mi South 5.8 mph - N/A   Clear
8:35 PM 80.6 °F 23.0 °F 12% 29.79 in 10.0 mi SSE 6.9 mph - N/A   Clear
8:55 PM 78.8 °F 15.8 °F 9% 29.79 in 10.0 mi SE 5.8 mph - N/A   Clear
9:15 PM 75.2 °F 24.8 °F 15% 29.78 in 10.0 mi Calm Calm - N/A   Clear
9:35 PM 78.8 °F 19.4 °F 11% 29.79 in 10.0 mi South 5.8 mph - N/A   Clear
9:55 PM 78.8 °F 19.4 °F 11% 29.79 in 10.0 mi Calm Calm - N/A   Clear
10:35 PM 73.4 °F 28.4 °F 19% 29.79 in 10.0 mi Calm Calm - N/A   Partly Cloudy
10:55 PM 71.6 °F 32.0 °F 23% 29.78 in 10.0 mi NW 4.6 mph - N/A   Partly Cloudy
11:15 PM 75.2 °F 21.2 °F 13% 29.78 in 10.0 mi SW 5.8 mph - N/A   Partly Cloudy
11:35 PM 73.4 °F 21.2 °F 14% 29.78 in 10.0 mi Calm Calm - N/A   Mostly Cloudy
11:55 PM 75.2 °F 21.2 °F 13% 29.78 in 10.0 mi SW 4.6 mph - N/A   Scattered Clouds